STARLINK-37006

operational
NORAD ID: 70124 Constellation: starlink
LEOCIRCULAR

Über STARLINK-37006

Beschreibung wird geladen...

Live-Position

3D-Globus wird geladen...

Nächste Überflüge

Höhenverlauf

Altitude vs Time

uPlot chart will show altitude changes over time

Zweizeiliger Elementsatz

1 70124C 26050W 26073.73243056 .00572900 00000+0 74814-3 0 737
2 70124 53.1640 257.6163 0010932 268.4435 224.5808 16.05537537 14
Epoch: 14. März 2026 • Age: 48 hours